Location: Edmonton
(53.5500°N, 113.5000°W)
Time: 02:22:45
(UTC-06:00)

Daily predictions for brighter satellites

Satellite Brightness Start Highest point End
(mag) Time Altitude Azimuth Time Altitude Azimuth Time Altitude Azimuth
CZ-4C R/B 3.7 00:02:14 10° NW 00:08:09 39° NNE 00:08:56 38° NNE
USA 215 4.1 00:11:47 43° WNW 00:11:47 43° WNW 00:16:02 10° W
SL-16 R/B 3.9 00:18:03 10° NNW 00:21:27 29° N 00:21:27 29° N
Terra 4.4 00:32:36 16° NW 00:32:36 16° NW 00:33:52 10° NW
Cosmos 2322 Rocket 3.9 00:41:25 10° NNW 00:44:21 29° N 00:44:21 29° N
COSMOS 2455 4.4 00:43:56 10° NW 00:48:19 32° N 00:48:19 32° N
ATLAS 3B R/B 3.5 00:42:56 10° NW 00:48:32 48° NNW 00:48:32 48° NNW
ATLAS 5 CENTAUR R/B 4.1 00:49:56 10° NW 00:52:32 23° NNW 00:52:32 23° NNW
Cosmos 2082 Rocket 4.4 01:05:08 19° NE 01:05:08 19° NE 01:06:38 10° NE
Cosmos 2219 Rocket 4.2 01:29:38 10° NNW 01:34:02 22° NNE 01:34:28 22° NE
Cosmos 2360 Rocket 4.1 01:30:56 10° NNW 01:33:33 26° NNW 01:33:33 26° NNW
CENTAUR R/B 4.0 01:33:34 10° WNW 01:40:01 39° N 01:47:12 10° ENE
CZ-4C R/B 4.0 01:50:59 10° NW 01:54:04 31° NW 01:54:04 31° NW
USA 229 DEB 4.5 02:09:50 49° NNE 02:09:50 49° NNE 02:15:18 10° NE
USA 229 4.5 02:09:57 49° NNE 02:09:57 49° NNE 02:15:24 10° NE
Cosmos 2333 Rocket 3.8 02:18:21 10° NNW 02:23:10 31° NNE 02:23:10 31° NNE
ATLAS 2AS CENTAUR R/B 3.5 02:42:05 52° E 02:42:05 52° E 02:48:41 10° NE
Cosmos 2237 Rocket 3.7 02:38:10 10° NNW 02:43:16 33° NE 02:43:22 33° NE
Cosmos 2082 Rocket 3.8 02:46:58 28° NNW 02:46:58 28° NNW 02:50:38 10° NNE
CZ-2C R/B 4.3 02:47:19 10° N 02:50:20 28° NNW 02:50:20 28° NNW
SL-16 R/B 4.1 02:59:20 10° NNW 03:04:08 27° NE 03:08:55 10° E
CZ-2D R/B 4.3 03:02:16 10° NE 03:05:44 18° E 03:06:13 17° E
Cosmos 2219 Rocket 3.7 03:13:23 10° NNW 03:16:07 29° NNW 03:16:07 29° NNW
SL-16 R/B 2.9 03:23:44 57° E 03:24:11 59° ENE 03:30:20 10° NNW
Resurs 1-4 Rocket 3.8 03:20:28 10° NE 03:24:48 25° E 03:25:18 24° E
Cosmos 1238 Rocket 4.2 03:31:36 74° NE 03:31:36 74° NE 03:37:58 10° NNE
CENTAUR R/B 3.6 03:25:05 10° NW 03:32:13 52° NNE 03:40:06 10° ESE
Cosmos 1833 Rocket 4.4 03:32:55 23° NNW 03:32:58 23° NNW 03:37:22 10° NNE
NOSS 3-2 (C) 3.8 03:34:25 10° NW 03:41:41 86° SW 03:49:39 10° SE
GEOS 3 Rocket 4.4 03:38:29 10° NE 03:42:20 46° E 03:42:20 46° E
Cosmos 2239 Rocket 4.5 03:43:14 10° N 03:49:20 80° NE 03:49:20 80° NE
Cosmos 2344 4.2 03:57:26 39° SSE 03:59:40 48° ESE 04:08:16 10° NE
ARIANE 5 R/B 3.1 03:55:00 10° NNE 03:59:52 50° E 03:59:52 50° E
NOSS 2-3 (D) 4.2 04:04:45 75° NE 04:04:45 75° NE 04:10:27 10° NE
Meteor 2-16 Rocket 4.3 04:00:53 10° NNW 04:06:57 85° WNW 04:06:57 85° WNW
Cosmos 2333 Rocket 3.6 04:02:33 10° NW 04:05:04 27° NW 04:05:04 27° NW
IRS-1C 4.2 04:02:56 10° NNE 04:07:40 70° N 04:07:40 70° N
NOSS 3-1 (C) 4.5 04:08:18 34° NW 04:10:12 41° NNW 04:17:03 10° NE
Cosmos 2112 Rocket 4.2 04:05:14 10° NNW 04:10:35 69° ENE 04:11:12 62° ESE
Cosmos 724 4.5 04:07:02 10° NW 04:13:17 76° NE 04:19:32 10° SE
Cosmos 1680 Rocket 3.8 04:09:13 10° NNW 04:13:35 60° NNW 04:13:35 60° NNW
ADEOS 3.6 04:10:38 10° NNE 04:15:34 79° NNE 04:15:34 79° NNE
NOSS 3-1 (A) 4.4 04:14:22 36° NW 04:16:10 43° NNW 04:23:02 10° NE
Cosmos 1535 Rocket 4.4 04:10:33 10° NNW 04:16:15 68° WNW 04:16:15 68° WNW
Lacrosse 5 rocket 2.2 04:21:06 52° E 04:21:06 52° E 04:24:32 10° ENE
ATLAS 5 CENTAUR R/B 4.3 04:30:33 15° SSE 04:30:33 15° SSE 04:31:39 10° SSE
Nadezhda 3 Rocket 3.9 04:25:37 66° W 04:25:53 66° WNW 04:32:08 10° N
Cosmos 2237 Rocket 3.3 04:22:11 10° NW 04:25:03 31° NW 04:25:03 31° NW
Cosmos 2082 Rocket 4.5 04:28:49 11° NW 04:31:35 15° NNW 04:34:43 10° NNE
ATLAS 2AS CENTAUR R/B 3.3 04:29:32 45° W 04:31:57 62° NNW 04:40:03 10° NE
Cosmos 1461 3.4 04:37:05 59° NNE 04:37:05 59° NNE 04:40:42 10° NE
Cosmos 292 Rocket 3.9 04:33:23 10° NNW 04:38:17 75° ENE 04:43:09 10° SSE
Cosmos 968 Rocket 3.3 04:38:43 77° WNW 04:38:46 77° WNW 04:43:56 10° NNE
NPP 4.3 04:36:55 10° N 04:41:35 39° NW 04:41:35 39° NW
Cosmos 2058 Rocket 4.4 04:37:58 10° N 04:42:04 38° ENE 04:46:09 10° SE
IRAS Rocket 4.1 04:36:43 10° NNE 04:42:17 83° WNW 04:43:10 64° SW
Cosmos 1727 Rocket 4.4 04:40:04 22° SSE 04:44:14 63° E 04:50:29 10° NNE
CZ-2D R/B 2.0 04:41:17 10° NNE 04:46:33 88° WNW 04:47:32 61° SSW
Aureole 2 Rocket 3.4 04:44:26 10° NNW 04:47:59 45° ENE 04:51:11 10° SE
SL-16 R/B 2.1 04:43:18 10° NNW 04:49:03 89° NE 04:54:45 10° SSE
Cosmos 2219 3.2 04:50:36 55° W 04:51:20 59° NW 04:56:55 10° NNE
Cosmos 1743 4.1 04:49:34 10° NNW 04:51:39 30° NNW 04:51:39 30° NNW
MOZ.5/SAFIR/RUBIN 5/SL-8 3.7 04:52:39 38° SSE 04:54:32 88° W 04:59:20 10° NNW
Lacrosse 5 2.7 04:54:26 34° S 04:55:34 39° SE 05:00:17 10° ENE
Cosmos 1025 Rocket 3.7 04:56:18 28° SSE 04:58:15 51° E 05:02:27 10° NNE
IRS-1D 3.6 04:53:03 10° N 04:58:22 64° WNW 04:59:15 55° WSW
UNKNOWN OBJECT B 2.7 04:55:31 10° NNE 04:59:31 88° WNW 04:59:33 88° WSW
Cosmos 1934 Rocket 4.2 04:54:55 10° NNW 05:00:51 45° W 05:01:23 44° WSW
Thor Agena Rocket 4.1 04:56:04 10° SE 05:01:16 60° ENE 05:06:28 10° N
Cosmos 1174 4.2 05:04:50 42° E 05:04:50 42° E 05:07:13 10° ESE
Resurs 1-4 Rocket 2.1 04:59:49 10° N 05:05:06 65° WNW 05:06:22 49° SW
Cosmos 2227 Rocket 2.4 05:03:30 33° S 05:06:06 69° ESE 05:11:44 10° NE
Cosmos 1153 Rocket 4.4 05:00:32 10° NNW 05:06:51 75° W 05:13:13 10° S
Cosmos 1605 Rocket 4.0 05:02:05 10° NNW 05:08:03 54° W 05:10:31 34° SSW
SL-16 R/B 3.2 05:08:50 33° W 05:08:50 33° W 05:13:48 10° NNW
Cosmos 1812 4.1 05:11:15 27° NW 05:11:15 27° NW 05:13:38 10° N
Cosmos 1606 Rocket 3.4 05:09:04 10° NNW 05:13:29 78° W 05:15:51 26° S
Meteor 1-13 Rocket 4.2 05:10:36 28° SSW 05:13:49 87° W 05:19:32 10° NNE
ERS-2 2.7 05:10:27 10° N 05:13:29 44° NW 05:13:29 44° NW
Cosmos 2297 Rocket 2.6 05:11:35 23° S 05:15:04 60° ESE 05:20:39 10° NE
Cosmos 1346 Rocket 3.6 05:15:13 19° SSE 05:17:50 51° E 05:21:46 10° NNE
Cosmos 2098 Rocket 3.9 05:14:49 10° N 05:18:23 47° ENE 05:22:50 10° SSE
Okean O Rocket 1.9 05:14:16 10° NNE 05:18:40 67° ESE 05:21:34 21° S
ADEOS Rocket 4.1 05:12:05 10° NNE 05:19:13 52° E 05:25:37 10° S
GEOS 3 Rocket 4.1 05:16:41 10° NE 05:21:35 46° NNW 05:23:27 32° W
RESURS DK-1 2.7 05:20:47 34° S 05:22:21 62° ESE 05:26:28 10° NE
Okean 1 4.3 05:23:09 31° NW 05:23:09 31° NW 05:26:11 10° N
CENTAUR R/B 2.9 05:15:54 10° NW 05:23:28 74° SW 05:31:41 10° SE
Cosmos 1726 Rocket 3.4 05:19:15 10° NNW 05:23:40 73° W 05:28:01 10° S
Cosmos 220 Rocket 3.8 05:26:04 38° SSW 05:27:39 87° ESE 05:31:55 10° NNE
PSLV R/B 3.8 05:25:20 10° NNE 05:29:28 89° ESE 05:31:44 26° SSW
Cosmos 1943 4.3 05:25:10 10° NNW 05:30:34 45° NE 05:35:58 10° ESE
CZ-2D R/B 3.5 05:30:02 10° N 05:33:59 53° WNW 05:34:54 42° WSW
Cosmos 1777 Rocket 4.3 05:34:34 33° WSW 05:36:31 49° NW 05:41:40 10° NNE
Cosmos 1603 3.7 05:30:51 10° NNW 05:36:40 84° ENE 05:42:22 10° SSE
ARIANE 5 R/B 3.4 05:34:27 10° N 05:38:56 31° WNW 05:40:12 28° W
PSLV R/B 4.5 05:36:08 10° NNE 05:40:22 49° E 05:44:33 10° S
Cosmos 1892 Rocket 3.6 05:39:22 11° S 05:43:40 88° ESE 05:48:12 10° NNE
Cosmos 2082 3.6 05:44:22 23° SW 05:47:56 72° NW 05:53:35 10° NNE
Cosmos 2100 Rocket 4.0 05:41:58 10° NNW 05:48:05 60° W 05:54:14 10° S
Cosmos 2228 2.9 05:43:49 10° NNW 05:48:14 74° W 05:52:36 10° S
PAYLOAD B 4.2 05:43:16 10° NNE 05:48:49 87° WNW 05:54:20 10° SSW
Okean 1-7 Rocket 4.3 05:48:26 30° W 05:49:35 34° WNW 05:53:39 10° N
Cosmos 1802 Rocket 3.9 05:44:48 10° NNW 05:50:57 69° W 05:57:02 10° S
Cosmos 2061 Rocket 4.0 05:45:01 10° NNW 05:51:13 63° W 05:57:29 10° S
DNEPR-1 R/B 4.5 05:47:57 10° NW 05:53:28 59° NE 05:58:02 10° ESE
Cosmos 1666 3.3 05:52:34 10° NNW 05:56:06 33° W 05:57:39 24° SW
Tiangong 1 3.5 05:56:05 11° S 05:56:14 11° S 05:57:16 10° SSE
Cosmos 2084 Rocket 3.1 05:53:21 14° NW 05:56:39 87° SW 06:00:36 10° SE
Meteor 1-15 Rocket 4.3 05:52:04 10° NNW 05:57:28 52° W 06:02:53 10° S
ADEOS II 2.5 05:53:20 10° NNE 05:58:36 64° ESE 06:03:49 10° S
Cosmos 2084 3.8 05:57:06 27° W 05:58:43 43° NNW 06:02:26 10° NE
Cosmos 1812 Rocket 3.9 05:54:44 10° N 05:59:12 69° ENE 06:03:38 10° SSE
Cosmos 1725 Rocket 4.1 05:53:03 10° N 05:59:25 86° E 06:05:42 10° S
Lacrosse 5 rocket 1.9 05:56:49 22° W 05:59:34 57° N 06:03:53 10° ENE
NOSS 3-4 (A) 3.6 05:57:23 20° WSW 06:02:04 76° NW 06:08:49 10° NE
NOSS 3-4 (C) 3.6 05:57:28 20° WSW 06:02:11 76° NW 06:08:56 10° NE
COS B Rocket 2.5 06:03:38 39° WSW 06:03:53 40° W 06:06:29 10° NNW
CZ-4B R/B 3.2 06:02:18 10° N 06:06:36 60° WNW 06:11:02 10° SSW
CZ-4B R/B 3.2 06:04:56 10° NNE 06:10:17 65° WNW 06:15:41 10° SSW
Cosmos 468 4.5 06:07:52 10° NNW 06:13:08 87° WSW 06:18:22 10° SSE
Cosmos 2344 4.1 06:07:27 17° WSW 06:13:56 65° NNW 06:24:00 10° NE
Meteor PRIRODA 3.8 06:13:32 10° NNE 06:17:19 77° ESE 06:21:01 10° S
Cosmos 2058 Rocket 3.9 06:16:12 10° NNW 06:19:58 29° W 06:23:43 10° SSW
Cosmos 2016 Rocket 4.2 06:14:30 10° NNW 06:20:39 52° W 06:26:42 10° SSW
MOS 1 Rocket 3.8 06:17:33 10° NNE 06:22:18 68° ESE 06:27:19 10° S
Aureole 2 Rocket 4.1 06:20:49 10° WNW 06:24:22 15° SW 06:25:31 10° SW
ATLAS 2AS CENTAUR R/B 3.9 06:16:58 10° WNW 06:24:26 41° N 06:32:03 10° ENE
Cosmos 2173 Rocket 4.4 06:20:17 10° NNW 06:25:47 36° W 06:31:18 10° SSW
Okean-O 2.6 06:21:26 10° NNE 06:25:55 82° WNW 06:30:21 10° SSW
CZ-2D R/B 3.5 06:22:20 10° N 06:26:00 20° NW 06:28:51 13° W
Meteor 2-17 Rocket 4.4 06:20:07 10° NNW 06:26:17 80° W 06:32:26 10° S
Okean 2 3.9 06:22:41 10° SW 06:26:34 38° WNW 06:30:28 10° N
AVUM R/B 2.4 06:24:07 10° NW 06:26:39 65° WSW 06:29:00 10° SSE
Meteor 2-4 Rocket 4.2 06:23:47 10° SW 06:29:25 45° WNW 06:35:08 10° N
Cosmos 2298 Rocket 4.1 06:24:18 10° SW 06:29:35 66° WNW 06:34:55 10° NNE
SeaSat 1 3.0 06:25:13 10° SE 06:30:05 63° NE 06:34:59 10° NNW
COBE Rocket 4.0 06:27:01 10° NNE 06:31:53 81° ESE 06:36:35 10° S
SL-16 R/B 3.4 06:28:27 10° NW 06:32:27 20° W 06:36:24 10° SW
Cosmos 1048 Rocket 3.9 06:30:03 10° NNW 06:35:14 86° WSW 06:40:22 10° SSE
USA 129 2.3 06:34:22 10° SSW 06:35:41 22° WSW 06:35:41 22° WSW
Cosmos 1025 Rocket 4.3 06:33:14 12° WSW 06:36:10 22° WNW 06:39:37 10° NNW
Cosmos 990 Rocket 4.1 06:31:29 10° SSW 06:36:45 84° ESE 06:42:01 10° NNE
Ariane Rocket 4.4 06:31:52 10° NNE 06:36:46 44° E 06:41:38 10° S
Cosmos 1269 Rocket 4.0 06:31:47 10° NNW 06:37:05 75° WSW 06:42:20 10° SSE
COSMO-SKYMED 1 2.6 06:33:27 10° SSE 06:37:48 89° WSW 06:42:11 10° NNW
Lacrosse 5 1.9 06:33:39 12° WSW 06:38:20 79° NNW 06:43:26 10° ENE
Thor Agena Rocket 4.5 06:36:28 10° SSW 06:40:55 27° W 06:45:24 10° NW
Cosmos 2150 Rocket 4.1 06:38:13 10° SW 06:43:18 59° WNW 06:48:26 10° NNE
Resurs 1-4 Rocket 3.8 06:41:01 10° NNW 06:44:02 16° NW 06:47:04 10° W
Cosmos 2123 Rocket 4.0 06:40:50 10° SSW 06:46:59 70° WNW 06:53:12 10° N
Helios 1B rocket 4.1 06:43:17 10° SE 06:47:07 39° ENE 06:50:58 10° N
Intercosmos 25 Rocket 3.4 06:47:00 10° NNW 06:50:16 53° W 06:54:39 10° S
Cosmos 1066 Rocket 4.5 06:44:44 10° S 06:50:26 81° E 06:56:18 10° NNE
Cosmos 2227 Rocket 3.1 06:45:32 10° WSW 06:50:37 33° NW 06:55:43 10° NNE
Cosmos 1626 Rocket 3.7 06:50:03 10° SSW 06:54:19 51° WNW 06:58:33 10° N
Cosmos 1346 Rocket 4.2 06:51:31 10° WSW 06:54:34 20° WNW 06:57:39 10° NNW
Okean O Rocket 3.0 06:51:23 10° N 06:54:39 21° WNW 06:57:54 10° WSW
Meteor 1-28 Rocket 3.9 06:51:44 10° SSE 06:55:27 61° ENE 06:59:12 10° N
DMSP B5D1-3 4.5 06:51:27 10° S 06:56:33 74° WSW 07:01:40 10° NNW
Cosmos 158 Rocket 4.0 06:51:51 10° NNW 06:56:53 89° WSW 07:02:02 10° SSE
Cosmos 1758 4.3 06:54:51 10° N 06:58:54 54° ENE 07:02:55 10° SSE
Cosmos 2297 Rocket 3.0 06:54:17 10° WSW 06:59:28 36° NW 07:04:41 10° NNE
Cosmos 2098 Rocket 4.2 06:56:58 10° NW 06:59:47 20° W 07:03:02 10° SW
RESURS DK-1 3.6 06:57:17 10° W 07:00:47 25° NW 07:04:17 10° NNE
ADEOS Rocket 3.7 06:57:45 10° N 07:04:37 44° WNW 07:10:53 10° SW
